Weather History for PASD - October, 2013

Change the Weather History Date:

Tuesday, October 1, 2013

  Actual Average Record
Temperature  
Mean Temperature 46 °F -  
Max Temperature 48 °F 47 °F 54 °F (1984)
Min Temperature 44 °F 41 °F 34 °F (1990)
Degree Days  
Heating Degree Days 19    
Moisture  
Dew Point 44 °F    
Average Humidity 91    
Maximum Humidity 100    
Minimum Humidity 81    
Precipitation  
Precipitation 0.00 in - - ()
Sea Level Pressure  
Sea Level Pressure 29.85 in    
Wind  
Wind Speed 5 mph (NNW)    
Max Wind Speed 9 mph    
Max Gust Speed 20 mph    
Visibility 10 miles    
Events      
Averages and records for this station are not official NWS values.
T = Trace of Precipitation, MM = Missing Value Source: NWS Daily Summary

Daily Weather History Graph

Daily Weather History Graph

Search for Another Location

Airport or City:

Trip Planner

Search our weather history database for the weather conditions in past years. The results will help you decide how hot, cold, wet, or windy it might be!

Date:

Astronomy

Oct. 01, 2013 Rise Set
Actual Time 8:45 AM AKDT 8:16 PM AKDT
Civil Twilight 8:09 AM AKDT 8:52 PM AKDT
Nautical Twilight 7:26 AM AKDT 9:35 PM AKDT
Astronomical Twilight 6:42 AM AKDT 10:18 PM AKDT
Moon 5:04 AM AKDT (10/1) 6:47 PM AKDT (10/1)
Length of Visible Light 12h 43m
Length of Day
11h 30m
Waning Crescent, 11% of the Moon is Illuminated
Oct 1
Waning Crescent
Oct 4
New
Oct 11
First Quarter
Oct 18
Full
Oct 26
Last Quarter

Hourly Weather History & Observations

Time (AKDT) Temp. Windchill Dew Point Humidity Pressure Visibility Wind Dir Wind Speed Gust Speed Precip Events Conditions
12:16 AM 46.4 °F 42.9 °F 44.6 °F 93% 30.04 in 10.0 mi West 6.9 mph - N/A   Overcast
12:36 AM 46.4 °F 42.9 °F 44.6 °F 93% 30.04 in 10.0 mi WNW 6.9 mph - N/A   Overcast
12:56 AM 46.4 °F 41.9 °F 44.6 °F 93% 30.03 in 10.0 mi WNW 9.2 mph - N/A   Scattered Clouds
1:16 AM 46.4 °F 43.5 °F 44.6 °F 93% 30.04 in 10.0 mi West 5.8 mph - N/A   Mostly Cloudy
1:36 AM 46.4 °F 43.5 °F 44.6 °F 93% 30.03 in 10.0 mi WNW 5.8 mph - N/A   Overcast
1:56 AM 46.4 °F 42.9 °F 44.6 °F 93% 30.02 in 10.0 mi WNW 6.9 mph - N/A   Mostly Cloudy
2:16 AM 46.4 °F 42.9 °F 44.6 °F 93% 30.02 in 10.0 mi West 6.9 mph - N/A   Overcast
2:36 AM 46.4 °F 42.4 °F 44.6 °F 93% 30.02 in 10.0 mi West 8.1 mph - N/A   Overcast
2:56 AM 46.4 °F 42.4 °F 44.6 °F 93% 30.02 in 10.0 mi NW 8.1 mph - N/A   Overcast
3:16 AM 46.4 °F 42.4 °F 44.6 °F 93% 30.02 in 10.0 mi NW 8.1 mph - N/A   Overcast
3:36 AM 46.4 °F 42.9 °F 44.6 °F 93% 30.01 in 10.0 mi WNW 6.9 mph - N/A   Mostly Cloudy
3:56 AM 44.6 °F 39.7 °F 44.6 °F 100% 30.00 in 10.0 mi West 9.2 mph - N/A   Overcast
4:16 AM 44.6 °F 42.2 °F 44.6 °F 100% 30.00 in 10.0 mi WNW 4.6 mph - N/A   Overcast
4:36 AM 46.4 °F 42.4 °F 44.6 °F 93% 30.00 in 10.0 mi NNW 8.1 mph - N/A   Overcast
4:56 AM 46.4 °F 41.9 °F 44.6 °F 93% 29.99 in 10.0 mi NW 9.2 mph - N/A   Overcast
5:16 AM 46.4 °F 43.5 °F 44.6 °F 93% 29.98 in 10.0 mi NW 5.8 mph - N/A   Mostly Cloudy
5:36 AM 44.6 °F 41.4 °F 44.6 °F 100% 29.98 in 10.0 mi NW 5.8 mph - N/A   Mostly Cloudy
5:56 AM 46.4 °F 44.3 °F 44.6 °F 93% 29.98 in 10.0 mi West 4.6 mph - N/A   Overcast
6:16 AM 46.4 °F 42.4 °F 44.6 °F 93% 29.97 in 10.0 mi WNW 8.1 mph - N/A   Overcast
6:36 AM 46.4 °F - 44.6 °F 93% 29.97 in 10.0 mi Calm Calm - N/A   Overcast
6:56 AM 46.4 °F 44.3 °F 44.6 °F 93% 29.96 in 10.0 mi WNW 4.6 mph - N/A   Overcast
7:16 AM 46.4 °F 42.9 °F 44.6 °F 93% 29.97 in 10.0 mi WNW 6.9 mph - N/A   Overcast
7:36 AM 44.6 °F 40.7 °F 44.6 °F 100% 29.95 in 10.0 mi NW 6.9 mph - N/A   Mostly Cloudy
7:56 AM 44.6 °F 41.4 °F 44.6 °F 100% 29.95 in 10.0 mi WNW 5.8 mph - N/A   Mostly Cloudy
8:16 AM 44.6 °F 43.1 °F 44.6 °F 100% 29.94 in 10.0 mi NW 3.5 mph - N/A   Mostly Cloudy
8:36 AM 44.6 °F - 44.6 °F 100% 29.94 in 10.0 mi Calm Calm - N/A   Mostly Cloudy
8:56 AM 44.6 °F 43.1 °F 42.8 °F 93% 29.93 in 10.0 mi West 3.5 mph - N/A   Mostly Cloudy
9:16 AM 44.6 °F - 44.6 °F 100% 29.92 in 10.0 mi Calm Calm - N/A   Mostly Cloudy
9:36 AM 44.6 °F 43.1 °F 44.6 °F 100% 29.92 in 10.0 mi NNE 3.5 mph - N/A   Mostly Cloudy
9:56 AM 44.6 °F - 44.6 °F 100% 29.91 in 10.0 mi Calm Calm - N/A   Mostly Cloudy
10:16 AM 44.6 °F - 44.6 °F 100% 29.91 in 10.0 mi Calm Calm - N/A   Mostly Cloudy
10:36 AM 44.6 °F - 44.6 °F 100% 29.90 in 10.0 mi Calm Calm - N/A   Mostly Cloudy
10:56 AM 44.6 °F - 42.8 °F 93% 29.89 in 10.0 mi Calm Calm - N/A   Mostly Cloudy
11:16 AM 46.4 °F 45.2 °F 44.6 °F 93% 29.89 in 10.0 mi North 3.5 mph - N/A   Mostly Cloudy
11:36 AM 46.4 °F - 42.8 °F 87% 29.88 in 10.0 mi Calm Calm - N/A   Mostly Cloudy
11:56 AM 46.4 °F - 42.8 °F 87% 29.88 in 10.0 mi Calm Calm - N/A   Clear
12:16 PM 46.4 °F 45.2 °F 41.0 °F 81% 29.87 in 10.0 mi North 3.5 mph - N/A   Mostly Cloudy
12:36 PM 46.4 °F 44.3 °F 41.0 °F 81% 29.87 in 10.0 mi North 4.6 mph - N/A   Mostly Cloudy
12:56 PM 46.4 °F - 41.0 °F 81% 29.86 in 10.0 mi Calm Calm - N/A   Mostly Cloudy
1:16 PM 46.4 °F 42.9 °F 42.8 °F 87% 29.87 in 10.0 mi SSE 6.9 mph - N/A   Mostly Cloudy
1:36 PM 46.4 °F 43.5 °F 44.6 °F 93% 29.86 in 10.0 mi South 5.8 mph - N/A   Mostly Cloudy
1:56 PM 46.4 °F 43.5 °F 42.8 °F 87% 29.86 in 10.0 mi SSE 5.8 mph - N/A   Mostly Cloudy
2:16 PM 48.2 °F - 42.8 °F 82% 29.85 in 10.0 mi Calm Calm - N/A   Mostly Cloudy
2:36 PM 48.2 °F - 42.8 °F 82% 29.84 in 10.0 mi SE 4.6 mph - N/A   Mostly Cloudy
2:56 PM 48.2 °F - 42.8 °F 82% 29.82 in 10.0 mi SE 3.5 mph - N/A   Overcast
3:16 PM 48.2 °F - 42.8 °F 82% 29.81 in 10.0 mi East 4.6 mph - N/A   Overcast
3:36 PM 48.2 °F - 42.8 °F 82% 29.80 in 10.0 mi Calm Calm - N/A   Overcast
3:56 PM 48.2 °F - 44.6 °F 87% 29.78 in 10.0 mi ENE 3.5 mph - N/A   Overcast
4:16 PM 48.2 °F - 44.6 °F 87% 29.77 in 10.0 mi Calm Calm - N/A   Overcast
4:36 PM 48.2 °F - 44.6 °F 87% 29.77 in 10.0 mi Calm Calm - N/A   Overcast
4:56 PM 48.2 °F - 42.8 °F 82% 29.75 in 10.0 mi ENE 4.6 mph - N/A   Overcast
5:16 PM 48.2 °F - 42.8 °F 82% 29.74 in 10.0 mi ESE 4.6 mph - N/A   Overcast
5:36 PM 46.4 °F - 44.6 °F 93% 29.73 in 10.0 mi Calm Calm - N/A   Overcast
5:56 PM 46.4 °F 44.3 °F 44.6 °F 93% 29.72 in 10.0 mi SE 4.6 mph - N/A   Overcast
6:16 PM 46.4 °F 42.9 °F 42.8 °F 87% 29.71 in 10.0 mi SE 6.9 mph - N/A   Overcast
6:36 PM 46.4 °F 42.4 °F 42.8 °F 87% 29.71 in 10.0 mi SSE 8.1 mph - N/A   Overcast
6:56 PM 46.4 °F 44.3 °F 42.8 °F 87% 29.70 in 10.0 mi SSE 4.6 mph - N/A   Overcast
7:16 PM 46.4 °F - 42.8 °F 87% 29.69 in 10.0 mi Calm Calm - N/A   Overcast
7:36 PM 46.4 °F - 42.8 °F 87% 29.68 in 10.0 mi Calm Calm - N/A   Overcast
7:56 PM 46.4 °F - 42.8 °F 87% 29.67 in 10.0 mi Calm Calm - N/A   Overcast
8:16 PM 46.4 °F 44.3 °F 42.8 °F 87% 29.66 in 10.0 mi ENE 4.6 mph - N/A   Overcast
8:36 PM 46.4 °F 42.9 °F 42.8 °F 87% 29.65 in 10.0 mi ENE 6.9 mph - N/A   Overcast
8:56 PM 46.4 °F 45.2 °F 42.8 °F 87% 29.65 in 10.0 mi NE 3.5 mph - N/A   Overcast
9:16 PM 46.4 °F - 42.8 °F 87% 29.64 in 10.0 mi Calm Calm - N/A   Overcast
9:36 PM 46.4 °F - 42.8 °F 87% 29.63 in 10.0 mi Calm Calm - N/A   Overcast
9:56 PM 44.6 °F 42.2 °F 42.8 °F 93% 29.63 in 10.0 mi ESE 4.6 mph - N/A   Overcast
10:16 PM 44.6 °F 43.1 °F 42.8 °F 93% 29.61 in 10.0 mi ENE 3.5 mph - N/A   Overcast
10:36 PM 44.6 °F 41.4 °F 42.8 °F 93% 29.61 in 10.0 mi East 5.8 mph - N/A   Overcast
10:56 PM 46.4 °F 42.9 °F 42.8 °F 87% 29.60 in 10.0 mi East 6.9 mph - N/A   Overcast
11:16 PM 46.4 °F 43.5 °F 42.8 °F 87% 29.60 in 10.0 mi ENE 5.8 mph 16.1 mph N/A   Overcast
11:36 PM 46.4 °F 42.9 °F 42.8 °F 87% 29.60 in 10.0 mi ENE 6.9 mph - N/A   Overcast
11:56 PM 46.4 °F 42.9 °F 42.8 °F 87% 29.58 in 10.0 mi ENE 6.9 mph 19.6 mph N/A   Overcast